Volver al catálogo

CZ-3C DEB

LostGTO
NORAD 39355·DEBRIS·🇨🇳 China

Lanzado Oct 31, 2010 desde Xichang Satellite Launch Center

Loading…

TLE

ObsoletoSource: Space-Track

Época: Jul 6, 2017, 10:41 UTC

1 39355U 10057V   17187.44534897  .00007319  00000-0  58422-1 0  9998
2 39355  20.3313 111.6722 7174179 349.2965 308.9022  2.27573484 45659

Sigue CZ-3C DEB en tiempo real con AllMySat

Download on the App Store